[[{"header":{"parameterUnit":"m.s-1","parameterCategory":1,"la1":30.2991,"la2":30.254,"lo1":-89.0895,"lo2":-89.0444,"dy":0.0017,"dx":0.0017,"nx":28,"ny":28,"refTime":"2024-04-24T09:00:00:Z","depth":0,"parameterNumber":2,"parameterNumberName":"U-component_of_WINDS"},"data":[0,0,0,0,0,0,0,0,0,0,0,0,0,0,0,0,0,0,0,0,0,0,0,0,0,0,0,0,0,0,0,0,0,0,0,0,0,0,0,0,0,0,0,0,0,0,0,0,0,0,0,0,0,0,0,0,0,0,-0.8853,-0.8854,0,-0.8945,-0.8946,-0.8947,-0.8957,-0.8956,-0.8955,-0.8954,-0.9054,-0.9057,-0.9061,0,0,0,0,0,0,0,0,0,0,0,0,0,-0.8694,-0.8697,-0.8853,-0.8854,-0.8855,-0.8945,-0.8946,-0.8947,-0.8957,-0.8956,-0.8955,-0.8954,-0.9053,-0.9057,-0.9061,0,0,0,0,0,0,0,0,0,0,0,0,0,-0.8773,-0.8698,-0.8853,-0.8871,-0.8874,-0.8944,-0.8946,-0.8948,-0.8958,-0.8956,-0.8955,-0.8953,-0.9051,-0.9056,-0.9062,-0.9122,0,0,-0.9078,-0.908,0,0,0,0,0,0,0,0,-0.8768,-0.8778,-0.8867,-0.887,-0.8873,-0.8938,-0.8926,-0.9006,-0.8958,-0.8926,-0.8954,-0.8953,-0.9017,-0.9025,-0.9045,-0.9127,-0.9131,-0.9078,-0.9081,-0.9084,-0.9085,0,0,0,0,0,0,0,-0.8763,-0.8775,-0.889,-0.8869,-0.8872,-0.8877,-0.8887,-0.8942,-0.8978,-0.8929,-0.8929,-0.894,-0.9018,-0.904,-0.9048,-0.9133,-0.9078,-0.9083,-0.9086,-0.9088,-0.9274,-0.9276,0,0,0,0,0,0,-0.8753,-0.877,-0.8887,-0.8892,-0.8816,-0.8881,-0.8892,-0.8919,-0.8978,-0.8985,-0.8941,-0.894,-0.9032,-0.9041,-0.9051,-0.913,-0.9084,-0.9088,-0.9092,-0.9272,-0.9274,-0.9276,0,0,0,0,0,0,-0.8749,-0.8763,-0.8883,-0.8831,-0.8847,-0.8885,-0.8915,-0.8921,-0.8943,-0.8987,-0.8994,-0.8956,-0.9031,-0.9044,-0.9105,-0.9133,-0.9091,-0.9096,-0.927,-0.9273,-0.9275,-0.9285,0,0,0,0,0,0,-0.8745,-0.8762,-0.8783,-0.8832,-0.885,-0.8933,-0.8917,-0.8924,-0.8952,-0.8951,-0.9003,-0.9011,-0.9031,-0.9097,-0.9111,-0.914,-0.91,-0.9268,-0.9271,-0.9275,-0.9282,-0.9288,-0.9292,0,0,0,0,0,-0.8739,-0.8783,-0.8784,-0.8798,-0.8877,-0.8935,-0.8945,-0.8966,-0.8954,-0.8977,-0.9006,-0.9009,-0.9127,-0.9103,-0.9118,-0.915,-0.9266,-0.927,-0.9274,-0.928,-0.9287,-0.9292,0,0,0,0,0,0,-0.8738,-0.8789,-0.8792,-0.8852,-0.8889,-0.8936,-0.8966,-0.8972,-0.9014,-0.9012,-0.9038,-0.905,-0.9111,-0.9136,-0.9109,-0.9214,-0.9196,-0.9203,-0.9196,-0.9202,-0.9207,-0.9201,-0.9104,0,0,0,0,0,-0.8744,-0.8784,-0.8828,-0.8877,-0.8895,-0.8928,-0.8953,-0.8966,-0.9007,-0.9023,-0.9056,-0.9096,-0.9143,-0.9174,-0.9219,-0.9285,-0.93,-0.9315,-0.932,-0.9323,-0.933,-0.9372,-0.9381,-0.9289,-0.9289,-0.9289,0,0,-0.8758,-0.8791,-0.8815,-0.8877,-0.8908,-0.8952,-0.8941,-0.8987,-0.9021,-0.903,-0.9091,-0.9117,-0.9164,-0.923,-0.926,-0.9253,-0.9358,-0.9328,-0.9331,-0.9336,-0.9377,-0.9386,-0.9393,-0.9292,-0.9292,-0.9291,0,0,-0.8807,-0.8834,-0.888,-0.8911,-0.8956,-0.8978,-0.8989,-0.9037,-0.9054,-0.9115,-0.9124,-0.9166,-0.9245,-0.928,-0.9307,-0.9373,-0.9379,-0.9387,-0.9413,-0.9454,-0.9461,-0.9467,-0.9495,-0.9504,-0.9393,-0.9393,-0.9393,0,-0.8819,-0.8884,-0.8903,-0.895,-0.8979,-0.8988,-0.9037,-0.9066,-0.9125,-0.9146,-0.9136,-0.9238,-0.927,-0.9346,-0.9362,-0.9383,-0.94,-0.9382,-0.9458,-0.9465,-0.9471,-0.9498,-0.9507,-0.9394,-0.9394,-0.9394,-0.9393,0,-0.8899,-0.8944,-0.8976,-0.9032,-0.9064,-0.9112,-0.9141,-0.9172,-0.9183,-0.9207,-0.9271,-0.931,-0.9365,-0.9384,-0.9395,-0.9463,-0.9457,-0.9452,-0.9435,-0.948,-0.9506,-0.9516,-0.9395,-0.9395,-0.9394,-0.9394,0,0,-0.895,-0.9017,-0.9028,-0.9056,-0.9108,-0.9145,-0.9194,-0.9247,-0.9275,-0.9316,-0.9361,-0.9429,-0.9425,-0.9457,-0.9472,-0.9507,-0.9562,-0.9499,-0.95,-0.9512,-0.9644,-0.965,-0.9661,-0.9565,-0.9567,-0.9569,-0.9642,0,-0.9007,-0.9094,-0.9114,-0.919,-0.9234,-0.9245,-0.9289,-0.9328,-0.9352,-0.9395,-0.9422,-0.9472,-0.9461,-0.9481,-0.9516,-0.9548,-0.9589,-0.9542,-0.9611,-0.9613,-0.9602,-0.9674,-0.9679,-0.9746,-0.9651,-0.9653,-0.9654,0,-0.9086,-0.9128,-0.9208,-0.9258,-0.9278,-0.9316,-0.9369,-0.9408,-0.9454,-0.947,-0.9506,-0.9519,-0.9575,-0.9553,-0.9633,-0.96,-0.963,-0.965,-0.9653,-0.9663,-0.9638,-0.9689,-0.9768,-0.9779,-0.9669,-0.9668,-0.9667,0,-0.9119,-0.9196,-0.9255,-0.9278,-0.9336,-0.9364,-0.939,-0.9434,-0.9466,-0.9512,-0.9534,-0.9586,-0.9616,-0.9657,-0.9685,-0.9666,-0.9764,-0.9744,-0.9782,-0.9782,-0.9804,-0.9803,-0.9893,-0.9818,-0.9818,-0.9817,-0.9817,0,-0.9183,-0.9233,-0.9272,-0.9308,-0.9365,-0.9389,-0.9446,-0.9473,-0.9512,-0.9557,-0.9569,-0.9611,-0.9643,-0.9691,-0.9713,-0.9778,-0.9791,-0.9808,-0.9814,-0.9808,-0.9807,-0.983,-0.9828,-0.982,-0.9819,-0.9819,-0.9818,0,-0.9231,-0.9258,-0.9324,-0.9374,-0.9388,-0.9429,-0.9473,-0.9511,-0.9536,-0.9593,-0.9607,-0.9647,-0.9704,-0.9735,-0.9807,-0.9822,-0.9896,-0.9898,-0.9881,-0.9884,-0.9922,-0.9919,-1.0032,-1.005,-0.996,-0.996,-0.9961,0,-0.9271,-0.931,-0.9365,-0.9395,-0.9421,-0.9469,-0.9502,-0.9528,-0.9562,-0.9619,-0.9651,-0.9708,-0.9755,-0.9847,-0.9884,-0.994,-0.9945,-0.9981,-0.9954,-0.9949,-0.9951,-0.995,-0.9956,-0.9987,-0.9988,-0.9988,-0.9989,0,-0.9342,-0.9354,-0.9399,-0.9451,-0.949,-0.9532,-0.9574,-0.9598,-0.9632,-0.967,-0.9728,-0.9765,-0.9838,-0.9897,-0.9956,-0.9986,-0.9995,-0.9997,-1.0009,-1.0006,-0.9996,-1.0006,-0.9897,-0.9995,-0.9994,-0.9994,-0.9993,-0.9993,-0.939,-0.9426,-0.9471,-0.9523,-0.9557,-0.9597,-0.9636,-0.9666,-0.9714,-0.9775,-0.9788,-0.985,-0.9899,-0.9979,-1.0011,-1.0063,-1.0056,-1.0073,-1.0078,-1.0083,-1.0087,-0.9985,-1.0073,-1.0073,-1.0073,-1.0073,-1.0073,0,-0.9464,-0.9494,-0.9541,-0.9599,-0.9641,-0.9643,-0.9691,-0.9726,-0.9781,-0.9824,-0.9871,-0.994,-0.9997,-1.004,-1.0099,-1.0133,-1.0139,-1.0148,-1.0148,-1.0155,-1.0087,-1.0072,-1.0142,-1.0142,-1.0142,-1.0142,-1.0142,-1.0142,-0.9508,-0.9571,-0.9589,-0.967,-0.9701,-0.9761,-0.9788,-0.9827,-0.9862,-0.9938,-0.9985,-1.0012,-1.0057,-1.012,-1.0174,-1.0185,-1.0209,-1.0218,-1.0231,-1.0167,-1.0159,-1.0152,-1.0139,-1.0222,-1.0222,-1.0295,-1.0296,-1.0297]},{"header":{"parameterUnit":"m.s-1","parameterCategory":1,"la1":30.2991,"la2":30.254,"lo1":-89.0895,"lo2":-89.0444,"dy":0.0017,"dx":0.0017,"nx":28,"ny":28,"refTime":"2024-04-24T09:00:00:Z","depth":0,"parameterNumber":3,"parameterNumberName":"V-component_of_WINDS"},"data":[0,0,0,0,0,0,0,0,0,0,0,0,0,0,0,0,0,0,0,0,0,0,0,0,0,0,0,0,0,0,0,0,0,0,0,0,0,0,0,0,0,0,0,0,0,0,0,0,0,0,0,0,0,0,0,0,0,0,-0.0061,-0.0062,0,-0.0218,-0.022,-0.0222,-0.0309,-0.031,-0.031,-0.031,-0.0483,-0.0487,-0.0491,0,0,0,0,0,0,0,0,0,0,0,0,0,0.0152,0.0149,-0.006,-0.0062,-0.0064,-0.0218,-0.022,-0.0223,-0.0309,-0.031,-0.031,-0.031,-0.0481,-0.0486,-0.0492,0,0,0,0,0,0,0,0,0,0,0,0,0,0.0034,0.0148,-0.006,-0.0126,-0.0133,-0.0218,-0.022,-0.0223,-0.0309,-0.031,-0.031,-0.031,-0.0479,-0.0486,-0.0492,-0.0526,0,0,-0.0512,-0.0515,0,0,0,0,0,0,0,0,0.0041,0.0026,-0.0114,-0.0122,-0.013,-0.0244,-0.0209,-0.0325,-0.0309,-0.0243,-0.031,-0.031,-0.0404,-0.0417,-0.0446,-0.0534,-0.0542,-0.0513,-0.0517,-0.052,-0.0522,0,0,0,0,0,0,0,0.0049,0.0032,-0.0123,-0.0116,-0.0126,-0.0152,-0.0169,-0.0231,-0.032,-0.0249,-0.0255,-0.0272,-0.0408,-0.0439,-0.0451,-0.0544,-0.0513,-0.0519,-0.0523,-0.0525,-0.0675,-0.0675,0,0,0,0,0,0,0.0069,0.004,-0.0118,-0.0128,-0.0043,-0.0156,-0.0175,-0.0208,-0.0319,-0.0337,-0.0272,-0.0276,-0.0428,-0.0443,-0.0457,-0.0507,-0.052,-0.0526,-0.053,-0.0675,-0.0675,-0.0675,0,0,0,0,0,0,0.0074,0.0056,-0.0112,-0.0046,-0.0069,-0.0159,-0.0195,-0.0211,-0.0241,-0.0337,-0.0354,-0.0286,-0.0429,-0.0448,-0.0509,-0.0515,-0.0529,-0.0535,-0.0675,-0.0675,-0.0675,-0.0606,0,0,0,0,0,0,0.0081,0.0059,0.0048,-0.0045,-0.0072,-0.0157,-0.0195,-0.0213,-0.0251,-0.0258,-0.0355,-0.0372,-0.043,-0.0499,-0.0515,-0.0524,-0.054,-0.0675,-0.0675,-0.0675,-0.0608,-0.0604,-0.06,0,0,0,0,0,0.0089,0.0073,0.0048,0.003,-0.0087,-0.0157,-0.0173,-0.0237,-0.0251,-0.0265,-0.0327,-0.0368,-0.0511,-0.0504,-0.0524,-0.0534,-0.0675,-0.0675,-0.0675,-0.061,-0.0605,-0.06,0,0,0,0,0,0,0.0165,0.0059,0.0031,-0.0015,-0.0076,-0.0171,-0.019,-0.0228,-0.0289,-0.0293,-0.0374,-0.0396,-0.045,-0.0499,-0.0489,-0.0576,-0.0598,-0.0602,-0.0542,-0.0537,-0.0533,-0.0521,-0.0545,0,0,0,0,0,0.0178,0.0134,0.0041,0.0009,-0.002,-0.0099,-0.0132,-0.0177,-0.0245,-0.0272,-0.0338,-0.0406,-0.0467,-0.0505,-0.0566,-0.0616,-0.0642,-0.0634,-0.063,-0.0626,-0.0629,-0.0664,-0.0663,-0.0676,-0.0676,-0.0676,0,0,0.0201,0.0137,0.0114,0.0023,-0.0029,-0.0078,-0.012,-0.0169,-0.0207,-0.0281,-0.0342,-0.0393,-0.0475,-0.0532,-0.0561,-0.0574,-0.0631,-0.0626,-0.0622,-0.0627,-0.0664,-0.0663,-0.0661,-0.0676,-0.0676,-0.0676,0,0,0.0219,0.0168,0.0135,0.0083,0.0005,-0.0049,-0.0057,-0.0148,-0.0184,-0.0246,-0.0303,-0.0353,-0.0454,-0.0511,-0.0553,-0.0561,-0.0603,-0.0579,-0.0557,-0.0591,-0.059,-0.0589,-0.0596,-0.0596,-0.0582,-0.0581,-0.0581,0,0.0257,0.0187,0.0121,0.0076,0.0035,-0.0032,-0.007,-0.0118,-0.0213,-0.0242,-0.0255,-0.0387,-0.0446,-0.0519,-0.0521,-0.0552,-0.0568,-0.0568,-0.0584,-0.0584,-0.0585,-0.0592,-0.0594,-0.0578,-0.0579,-0.0579,-0.0579,0,0.0235,0.0186,0.0168,0.008,0.0037,-0.0004,-0.0081,-0.0118,-0.0159,-0.0213,-0.028,-0.0353,-0.0432,-0.0453,-0.0495,-0.0534,-0.054,-0.0567,-0.0591,-0.0579,-0.0587,-0.059,-0.0573,-0.0575,-0.0576,-0.0576,0,0,0.0299,0.0175,0.0169,0.0126,0.0033,-0.0008,-0.0056,-0.013,-0.0161,-0.0226,-0.0271,-0.0357,-0.0384,-0.0432,-0.0482,-0.0511,-0.0517,-0.0536,-0.054,-0.0532,-0.057,-0.0549,-0.0551,-0.0546,-0.0547,-0.0547,-0.0564,0,0.0302,0.022,0.0157,0.0096,0.0047,-0.0019,-0.0062,-0.0126,-0.0178,-0.0232,-0.0292,-0.0353,-0.0382,-0.0412,-0.0443,-0.0509,-0.0526,-0.0509,-0.0593,-0.0595,-0.0571,-0.0555,-0.0532,-0.0544,-0.0567,-0.0568,-0.0568,0,0.0296,0.0236,0.0171,0.0079,0.0056,0.0021,-0.0055,-0.0103,-0.018,-0.0217,-0.0272,-0.0323,-0.0382,-0.0401,-0.0485,-0.0472,-0.0511,-0.055,-0.0552,-0.0563,-0.0581,-0.0567,-0.0549,-0.0552,-0.0573,-0.0573,-0.0572,0,0.0346,0.0248,0.0195,0.0161,0.0055,0.003,-0.0017,-0.0093,-0.0135,-0.0203,-0.0232,-0.0307,-0.0348,-0.0407,-0.048,-0.0486,-0.0559,-0.0583,-0.0596,-0.0594,-0.0608,-0.0606,-0.0598,-0.063,-0.063,-0.063,-0.063,0,0.0356,0.0317,0.0216,0.0184,0.0137,0.0063,0.0017,-0.0036,-0.0104,-0.0152,-0.0216,-0.026,-0.0353,-0.0411,-0.0469,-0.0532,-0.055,-0.0585,-0.0601,-0.058,-0.0576,-0.0607,-0.0609,-0.0631,-0.0631,-0.0631,-0.063,0,0.0404,0.0336,0.0273,0.0177,0.0151,0.0121,0.0036,-0.0001,-0.0058,-0.0119,-0.0138,-0.0229,-0.03,-0.0378,-0.0477,-0.0517,-0.0578,-0.0599,-0.0551,-0.056,-0.0569,-0.0568,-0.0581,-0.0588,-0.0614,-0.0613,-0.0613,0,0.0415,0.0384,0.0284,0.0249,0.0205,0.015,0.0107,0.0031,-0.0013,-0.0105,-0.0132,-0.0208,-0.0272,-0.0385,-0.0463,-0.054,-0.0565,-0.0564,-0.0577,-0.0557,-0.0568,-0.0565,-0.0571,-0.056,-0.056,-0.0559,-0.0559,0,0.0439,0.0406,0.0349,0.0278,0.023,0.017,0.0107,0.008,-0.001,-0.0056,-0.0128,-0.0178,-0.0279,-0.0355,-0.0442,-0.0497,-0.0545,-0.0554,-0.0562,-0.0542,-0.0513,-0.0531,-0.0542,-0.0553,-0.0554,-0.0554,-0.0555,-0.0555,0.0467,0.0435,0.036,0.0296,0.0241,0.0183,0.0143,0.0081,0.0021,-0.0064,-0.0107,-0.018,-0.0263,-0.0384,-0.0437,-0.0499,-0.0514,-0.0524,-0.0527,-0.0529,-0.0525,-0.0502,-0.0516,-0.0516,-0.0516,-0.0516,-0.0517,0,0.0486,0.0434,0.0377,0.0291,0.024,0.0203,0.013,0.0089,0.0027,-0.0044,-0.0106,-0.0192,-0.0267,-0.0352,-0.0434,-0.0468,-0.0492,-0.0487,-0.0486,-0.0499,-0.0506,-0.0492,-0.0466,-0.0466,-0.0466,-0.0466,-0.0466,-0.0466,0.049,0.0433,0.0391,0.0304,0.025,0.0181,0.0142,0.0086,0.0029,-0.0062,-0.0124,-0.0178,-0.0256,-0.0345,-0.0418,-0.0441,-0.047,-0.0459,-0.0489,-0.0494,-0.0498,-0.0502,-0.0489,-0.0464,-0.0464,-0.0478,-0.0478,-0.0478]}]]